ARIANE 5 R/B, 41749

Orbit data source: Space-Track

ARIANE 5 R/B, 41749 is space debris in HEO originally from a launch on Wed, 24 Aug 2016 UTC launched from the French Guiana (FRGUI). Debris objects in space refer to the collection of defunct objects orbiting the Earth. Examples of debris include non-operational satellites, rocket bodies, and fragments generated from explosions, collisions, or faulty payload assembly.

Loading next visibility...
Identifier
41749, 2016-053C
Orbit
HEO
Country
Flag of FRFR
Related business
Manufacturer
Airbus Safran
Mission
Spacecraft
Bus & Motor
ESC-A, Unknown motor
Mass
~5,000 kg wet, ~5,000 kg dry
Launch date (UTC)
2016-08-24 (9 years ago)
Launch vehicle
Unknown
Launch site
French Guiana (FRGUI)
Object type
Payload
Rocket body
Debris
Shape & HBR
Cyl + 1 Nozzle, 3.5 m
Radar Cross Section
41.627 m², Large (>1 m²)

Expand to show TLE details & history
Last TLE update: 17 hours ago

TLE from 17 hours ago
0 ARIANE 5 R/B
1 41749U 16053C   25291.52398712  .00004162  00000-0  11690-2 0  9998
2 41749   5.8013 138.0050 7149537 131.9397 316.1368  2.44516662 78458
Epoch: 2025-10-18T12:34Z
TLE epoch observation values (Epoch: 2025-10-18T12:34:32.487Z)
Latitude
-0.00018°
Longitude
-77.59089°
Altitude
15,303.01 km
Speed
4.432 km/s
True Right ascension
09h 13m 11s
True Declination
0° 00' 01"
Sunlit
Object was in daylight at epoch
Visualization orbit readout
Latitude
Unknown
Longitude
Unknown
Altitude
Unknown
Speed
Unknown
Apparent Right ascension
Unknown
Apparent Declination
Unknown
Sunlit
N/A
Visualization observer readout
Local Sidereal Time
00:15:38
Azimuth
Unknown
Elevation
Unknown
Doppler factor
Unknown
Orbital elements
Apogee altitude
33,544.321 km
Perigee altitude
257.464 km
Semi-major axis
23,279.03 km
Eccentricity
0.71495
Inclination
5.8013°
RAAN
138.005°
Arg. of periapsis
131.9397°
True anomaly
228.23291°
Mean anomaly
316.1368°
Eccentric anomaly
275.35152°
Mean motion
0.61108 °/min
Orbital period
589.12 mins
BSTAR
0.001169
Loading maneuver chart data...
Computing Atmospheric mass density...
Loading historical data...
Loading historical data...
Loading historical data...
Loading historical data...
Loading historical data...
Loading historical data...
Loading historical data...

Documentation

Showing up to 5 results
|